TimeCDT,TemperatureF,Dew PointF,Humidity,Sea Level PressureIn,VisibilityMPH,Wind Direction,Wind SpeedMPH,Gust SpeedMPH,PrecipitationIn,Events,Conditions,WindDirDegrees,DateUTC
12:15 AM,59.9,50.5,71,29.91,10.0,SE,9.2,-,N/A,,Clear,140,2013-04-30 05:15:00
12:35 AM,59.9,50.9,72,29.91,10.0,SE,6.9,-,N/A,,Clear,140,2013-04-30 05:35:00
12:55 AM,59.0,50.9,74,29.91,10.0,SSE,6.9,-,N/A,,Clear,150,2013-04-30 05:55:00
1:15 AM,59.4,50.9,74,29.91,10.0,SE,8.1,-,N/A,,Clear,140,2013-04-30 06:15:00
1:35 AM,59.5,50.9,73,29.92,10.0,SSE,6.9,-,N/A,,Clear,150,2013-04-30 06:35:00
1:55 AM,57.9,50.9,77,29.92,10.0,SE,5.8,-,N/A,,Clear,140,2013-04-30 06:55:00
2:15 AM,57.2,50.7,79,29.92,10.0,SE,5.8,-,N/A,,Clear,140,2013-04-30 07:15:00
2:35 AM,56.3,50.5,81,29.92,10.0,SE,5.8,-,N/A,,Clear,130,2013-04-30 07:35:00
2:55 AM,56.3,50.4,80,29.92,10.0,SE,5.8,-,N/A,,Clear,130,2013-04-30 07:55:00
3:15 AM,56.5,50.9,82,29.92,10.0,SE,5.8,-,N/A,,Clear,130,2013-04-30 08:15:00
3:35 AM,56.7,50.9,81,29.93,10.0,SE,5.8,-,N/A,,Clear,130,2013-04-30 08:35:00
3:55 AM,56.3,50.7,82,29.93,10.0,SE,5.8,-,N/A,,Clear,130,2013-04-30 08:55:00
4:15 AM,56.3,50.9,82,29.93,10.0,ESE,6.9,-,N/A,,Clear,120,2013-04-30 09:15:00
4:35 AM,55.8,50.4,82,29.93,10.0,ESE,5.8,-,N/A,,Clear,120,2013-04-30 09:35:00
4:55 AM,54.3,49.1,83,29.93,10.0,East,3.5,-,N/A,,Clear,100,2013-04-30 09:55:00
5:15 AM,53.8,49.6,86,29.94,10.0,East,3.5,-,N/A,,Clear,90,2013-04-30 10:15:00
5:35 AM,54.0,49.6,85,29.94,10.0,ESE,4.6,-,N/A,,Clear,110,2013-04-30 10:35:00
5:55 AM,54.0,49.8,86,29.94,10.0,ESE,4.6,-,N/A,,Clear,110,2013-04-30 10:55:00
6:15 AM,54.1,50.0,86,29.95,10.0,East,3.5,-,N/A,,Clear,100,2013-04-30 11:15:00
6:35 AM,53.8,49.8,86,29.96,10.0,East,3.5,-,N/A,,Clear,90,2013-04-30 11:35:00
6:55 AM,57.2,52.5,84,29.97,10.0,ESE,3.5,-,N/A,,Clear,110,2013-04-30 11:55:00
7:15 AM,58.5,52.3,80,29.98,10.0,ESE,4.6,-,N/A,,Clear,120,2013-04-30 12:15:00
7:35 AM,60.3,52.5,76,29.98,10.0,SE,10.4,-,N/A,,Clear,130,2013-04-30 12:35:00
7:55 AM,61.9,53.2,73,29.98,10.0,SE,8.1,-,N/A,,Clear,140,2013-04-30 12:55:00
8:15 AM,63.9,53.4,69,29.98,10.0,SE,8.1,-,N/A,,Clear,140,2013-04-30 13:15:00
8:35 AM,65.3,54.0,67,29.98,10.0,SE,11.5,-,N/A,,Clear,130,2013-04-30 13:35:00
8:55 AM,66.9,54.7,65,29.98,10.0,SE,8.1,-,N/A,,Clear,130,2013-04-30 13:55:00
9:15 AM,69.3,54.7,60,29.98,10.0,SE,10.4,-,N/A,,Clear,140,2013-04-30 14:15:00
9:35 AM,70.2,54.5,57,29.98,10.0,SSE,10.4,-,N/A,,Clear,160,2013-04-30 14:35:00
9:55 AM,71.2,55.2,57,29.98,10.0,SSE,10.4,-,N/A,,Clear,160,2013-04-30 14:55:00
10:15 AM,72.3,55.8,56,29.98,10.0,South,9.2,-,N/A,,Clear,170,2013-04-30 15:15:00
10:35 AM,73.6,56.3,55,29.98,10.0,SSE,11.5,-,N/A,,Clear,160,2013-04-30 15:35:00
10:55 AM,75.0,56.5,52,29.98,10.0,SSE,10.4,-,N/A,,Clear,150,2013-04-30 15:55:00
11:15 AM,75.7,56.8,52,29.98,10.0,SE,10.4,16.1,N/A,,Clear,140,2013-04-30 16:15:00
11:35 AM,76.6,56.8,50,29.98,10.0,South,11.5,-,N/A,,Clear,170,2013-04-30 16:35:00
11:55 AM,78.1,57.7,49,29.97,10.0,SSE,11.5,-,N/A,,Clear,160,2013-04-30 16:55:00
12:15 PM,78.4,57.6,49,29.97,10.0,SSE,11.5,-,N/A,,Clear,150,2013-04-30 17:15:00
12:35 PM,79.3,57.2,47,29.96,10.0,South,11.5,-,N/A,,Clear,170,2013-04-30 17:35:00
12:55 PM,79.7,58.3,48,29.96,10.0,SSE,11.5,-,N/A,,Clear,150,2013-04-30 17:55:00
1:15 PM,80.2,57.9,46,29.95,10.0,SSE,10.4,16.1,N/A,,Clear,150,2013-04-30 18:15:00
1:35 PM,81.1,56.7,43,29.95,10.0,SSE,8.1,-,N/A,,Clear,150,2013-04-30 18:35:00
1:55 PM,81.1,56.8,43,29.95,10.0,SE,9.2,-,N/A,,Clear,130,2013-04-30 18:55:00
2:15 PM,82.0,57.4,43,29.95,10.0,SE,10.4,-,N/A,,Clear,140,2013-04-30 19:15:00
2:35 PM,82.2,57.7,43,29.94,10.0,SSE,11.5,-,N/A,,Clear,150,2013-04-30 19:35:00
2:55 PM,82.6,57.0,42,29.94,10.0,SSE,12.7,-,N/A,,Clear,150,2013-04-30 19:55:00
3:15 PM,82.8,56.8,41,29.94,10.0,SSE,8.1,-,N/A,,Clear,150,2013-04-30 20:15:00
3:35 PM,82.6,56.3,40,29.94,10.0,SE,8.1,-,N/A,,Clear,130,2013-04-30 20:35:00
3:55 PM,82.8,56.3,40,29.94,10.0,SSE,11.5,-,N/A,,Clear,160,2013-04-30 20:55:00
4:15 PM,82.8,56.8,41,29.94,10.0,SE,10.4,-,N/A,,Clear,140,2013-04-30 21:15:00
4:35 PM,82.9,56.7,41,29.95,10.0,South,9.2,-,N/A,,Clear,170,2013-04-30 21:35:00
4:55 PM,82.6,55.9,40,29.95,10.0,South,10.4,-,N/A,,Clear,170,2013-04-30 21:55:00
5:15 PM,82.4,55.4,39,29.95,10.0,South,10.4,-,N/A,,Clear,180,2013-04-30 22:15:00
5:35 PM,82.0,56.1,41,29.96,10.0,South,10.4,-,N/A,,Clear,180,2013-04-30 22:35:00
5:55 PM,81.5,57.4,44,29.95,10.0,SSE,10.4,-,N/A,,Clear,160,2013-04-30 22:55:00
6:15 PM,80.8,56.5,43,29.95,10.0,SSE,10.4,-,N/A,,Clear,150,2013-04-30 23:15:00
6:35 PM,79.5,56.8,46,29.96,10.0,SE,9.2,-,N/A,,Clear,140,2013-04-30 23:35:00
6:55 PM,77.9,58.3,51,29.96,10.0,SE,5.8,-,N/A,,Clear,140,2013-04-30 23:55:00
7:15 PM,75.6,59.0,56,29.96,10.0,SE,8.1,-,N/A,,Clear,140,2013-05-01 00:15:00
7:35 PM,73.9,58.5,58,29.97,10.0,SSE,5.8,-,N/A,,Clear,150,2013-05-01 00:35:00
7:55 PM,72.3,57.9,60,29.98,10.0,SSE,5.8,-,N/A,,Clear,150,2013-05-01 00:55:00
8:15 PM,71.8,57.6,61,29.98,10.0,SSE,4.6,-,N/A,,Clear,150,2013-05-01 01:15:00
8:35 PM,67.6,58.6,73,29.99,10.0,SSE,3.5,-,N/A,,Clear,160,2013-05-01 01:35:00
8:55 PM,67.5,57.6,70,30.00,10.0,SSE,3.5,-,N/A,,Clear,150,2013-05-01 01:55:00
9:15 PM,67.5,56.7,68,30.01,10.0,SE,3.5,-,N/A,,Clear,140,2013-05-01 02:15:00
9:35 PM,65.3,56.8,74,30.01,10.0,Calm,Calm,-,N/A,,Clear,0,2013-05-01 02:35:00
9:55 PM,65.3,56.7,74,30.01,10.0,Calm,Calm,-,N/A,,Clear,0,2013-05-01 02:55:00
10:15 PM,63.0,56.5,79,30.02,10.0,Calm,Calm,-,N/A,,Clear,0,2013-05-01 03:15:00
10:35 PM,62.6,56.5,80,30.02,10.0,SE,3.5,-,N/A,,Clear,140,2013-05-01 03:35:00
10:55 PM,61.7,55.9,81,30.02,10.0,Calm,Calm,-,N/A,,Clear,0,2013-05-01 03:55:00
11:15 PM,61.3,56.3,83,30.02,10.0,SE,3.5,-,N/A,,Clear,140,2013-05-01 04:15:00
11:35 PM,60.1,55.9,86,30.03,10.0,Calm,Calm,-,N/A,,Clear,0,2013-05-01 04:35:00
11:55 PM,60.8,55.0,81,30.02,10.0,Calm,Calm,-,N/A,,Clear,0,2013-05-01 04:55:00